User: anonymous   Login
Location: Unspecified
(42.0334°N, 93.6656°W)
Time: 11:27:44
(UTC-05:00)
Language:

Iridium 63 - Orbit

View from above orbital plane
View from above orbital plane
View from above satellite
View from above satellite

Ground track
Ground track

The orbit data is extracted from the following two-line orbital elements,

1 25286U 98021B   16210.52757255  .00000097  00000-0  27263-4 0  9991
2 25286  86.4000 359.5984 0002448  90.2738 339.5851 14.34603242958648
Epoch (UTC): 28 July 2016 12:39:42
Eccentricity: 0.0002448
inclination: 86.4000°
perigee height: 774 km
apogee height: 778 km
right ascension of ascending node: 359.5984°
argument of perigee: 90.2738°
revolutions per day: 14.34603242
mean anomaly at epoch: 339.5851°
orbit number at epoch: 95864

The dashed part of the orbit path shows where the satellite is in the earth's shadow,  

DLR